Total_Precipitation_Accumulation
1.66 1.55 1.41 1.41 1.35 1.27 1.28 1.34 1.27 1.18 1.14 1.05 1.01 0.95 0.90 0.78 0.74 0.70 0.65 0.64 0.64 0.73 1.00 1.26 1.45 1.71 1.95 2.11 2.27 2.23 1.95 1.79 1.66 1.53 1.52 1.64 1.71 1.71 1.74 1.83 1.95 1.93 1.81
1.72 1.67 1.53 1.45 1.41 1.32 1.27 1.25 1.22 1.14 1.06 0.96 0.90 0.87 0.92 0.89 0.82 0.75 0.65 0.61 0.60 0.63 0.82 1.10 1.40 1.66 1.96 2.25 2.45 2.59 2.36 2.20 2.02 1.81 1.61 1.62 1.73 1.80 1.81 1.89 1.97 2.12 2.16
1.92 1.88 1.76 1.58 1.47 1.41 1.39 1.35 1.29 1.27 1.15 1.01 0.89 0.84 0.82 0.81 0.81 0.77 0.69 0.63 0.62 0.63 0.73 0.97 1.21 1.47 1.80 2.16 2.47 2.68 2.78 2.59 2.41 2.22 1.96 1.75 1.75 1.87 1.96 2.06 2.11 2.22 2.32
2.19 2.09 2.00 1.84 1.67 1.52 1.44 1.41 1.30 1.26 1.21 1.11 0.98 0.88 0.81 0.76 0.72 0.70 0.66 0.64 0.65 0.66 0.73 0.86 0.99 1.28 1.56 1.84 2.22 2.55 2.90 2.88 2.85 2.73 2.58 2.24 1.99 1.98 2.10 2.21 2.34 2.39 2.42
2.46 2.36 2.21 2.11 2.03 1.85 1.64 1.49 1.38 1.26 1.18 1.14 1.10 1.04 0.92 0.82 0.76 0.73 0.65 0.59 0.57 0.59 0.66 0.74 0.83 1.01 1.27 1.56 1.90 2.28 2.68 3.03 3.16 3.18 3.15 2.94 2.54 2.24 2.27 2.41 2.48 2.60 2.69
2.71 2.64 2.50 2.31 2.30 2.19 2.00 1.76 1.57 1.40 1.26 1.18 1.19 1.19 1.09 0.99 0.88 0.77 0.70 0.64 0.60 0.58 0.62 0.67 0.69 0.77 0.97 1.23 1.56 1.97 2.42 2.92 3.31 3.41 3.41 3.42 3.27 2.83 2.63 2.68 2.69 2.79 2.94
2.90 2.90 2.72 2.57 2.47 2.34 2.08 1.92 1.83 1.69 1.50 1.34 1.35 1.39 1.27 1.10 1.04 0.90 0.76 0.69 0.64 0.58 0.59 0.66 0.68 0.68 0.79 1.01 1.23 1.52 2.06 2.62 3.11 3.69 3.78 3.64 3.69 3.52 3.16 3.00 2.95 3.03 3.22
2.88 3.08 2.95 2.76 2.62 2.51 2.37 2.13 1.97 1.90 1.79 1.56 1.45 1.49 1.53 1.46 1.21 1.00 0.88 0.76 0.70 0.66 0.63 0.63 0.68 0.70 0.72 0.85 0.98 1.26 1.70 2.26 2.65 3.41 4.19 4.25 4.25 4.33 3.96 3.54 3.36 3.36 3.47
2.61 2.72 2.78 2.66 2.65 2.58 2.49 2.32 2.12 2.01 2.00 1.82 1.54 1.62 1.69 1.53 1.23 1.05 0.95 0.86 0.78 0.72 0.67 0.64 0.67 0.71 0.73 0.87 0.93 1.06 1.33 1.74 2.21 2.81 3.70 4.50 4.72 4.91 4.86 4.24 3.88 3.79 3.78
2.58 2.59 2.65 2.66 2.48 2.39 2.33 2.29 2.21 2.07 2.07 2.05 1.80 1.51 1.39 1.33 1.37 1.26 1.04 0.98 0.97 0.88 0.77 0.69 0.68 0.74 0.77 0.86 0.98 1.05 1.11 1.29 1.71 2.26 3.01 3.98 4.82 5.26 5.57 5.19 4.53 4.27 4.18
2.64 2.71 2.63 2.63 2.62 2.43 2.25 2.19 2.19 2.15 2.09 2.03 1.89 1.69 1.44 1.21 1.16 1.31 1.17 1.04 1.10 1.07 0.99 0.88 0.81 0.82 0.83 0.89 0.93 1.04 1.18 1.25 1.60 1.93 2.40 3.12 4.24 5.18 5.87 6.01 5.42 4.72 4.39
2.47 2.59 2.64 2.54 2.50 2.48 2.39 2.20 2.15 2.18 2.11 2.03 1.92 1.79 1.65 1.51 1.28 1.25 1.20 0.99 0.99 1.00 1.04 1.08 1.03 0.99 0.96 0.97 1.05 1.27 1.28 1.37 1.63 1.77 1.90 2.26 3.07 4.17 5.14 5.74 5.59 4.97 4.57
2.27 2.33 2.43 2.45 2.37 2.33 2.35 2.31 2.19 2.15 2.13 2.10 1.99 1.84 1.68 1.55 1.42 1.43 1.46 1.26 1.05 0.93 0.98 1.06 1.06 1.08 1.11 1.09 1.20 1.35 1.32 1.47 1.57 1.68 1.71 1.87 2.29 3.10 4.07 5.01 5.48 5.18 4.70
2.00 2.03 2.13 2.20 2.16 2.10 2.15 2.25 2.22 2.10 2.07 2.09 2.02 1.94 1.84 1.62 1.52 1.58 1.66 1.73 1.57 1.15 0.96 0.97 0.99 1.06 1.18 1.22 1.33 1.49 1.40 1.51 1.57 1.66 1.71 1.75 1.91 2.24 2.97 4.03 5.30 5.73 5.11
1.97 1.99 2.01 2.03 1.98 1.94 1.95 2.02 2.07 1.99 1.96 1.96 1.96 1.96 1.96 1.79 1.65 1.57 1.60 1.81 2.14 1.90 1.25 0.93 0.95 1.01 1.12 1.24 1.45 1.31 1.21 1.33 1.40 1.47 1.59 1.68 1.78 1.91 2.20 2.86 3.85 5.19 5.82
2.01 2.00 2.00 1.98 1.92 1.83 1.86 1.88 1.83 1.76 1.80 1.81 1.84 1.90 1.91 1.81 1.71 1.62 1.64 1.65 1.78 2.01 1.68 1.02 0.92 0.96 1.10 1.20 1.38 1.26 1.26 1.47 1.44 1.46 1.54 1.62 1.71 1.79 1.93 2.23 2.79 3.66 4.86
1.98 1.91 1.88 1.92 1.92 1.84 1.78 1.83 1.78 1.67 1.69 1.69 1.69 1.72 1.73 1.72 1.73 1.64 1.63 1.63 1.59 1.69 1.71 1.12 0.93 0.98 1.17 1.26 1.27 1.23 1.28 1.34 1.34 1.50 1.53 1.56 1.64 1.74 1.93 2.14 2.44 2.88 3.55
1.90 1.89 1.80 1.81 1.86 1.88 1.84 1.81 1.76 1.64 1.59 1.59 1.62 1.61 1.61 1.64 1.68 1.61 1.58 1.54 1.46 1.41 1.49 1.31 1.04 1.03 1.12 1.19 1.29 1.37 1.36 1.35 1.30 1.45 1.48 1.56 1.68 1.76 1.88 2.09 2.35 2.64 2.99
1.74 1.82 1.83 1.79 1.80 1.83 1.82 1.75 1.72 1.64 1.54 1.51 1.52 1.54 1.51 1.60 1.69 1.63 1.59 1.52 1.40 1.31 1.32 1.36 1.17 1.06 1.11 1.16 1.35 1.50 1.49 1.49 1.42 1.49 1.52 1.58 1.67 1.79 1.87 2.00 2.26 2.47 2.63
1.66 1.62 1.63 1.70 1.79 1.94 1.98 1.93 1.94 1.77 1.62 1.54 1.47 1.42 1.44 1.57 1.64 1.71 1.77 1.64 1.53 1.52 1.52 1.56 1.41 1.26 1.25 1.25 1.45 1.72 1.83 1.77 1.68 1.50 1.57 1.62 1.73 1.85 1.88 1.88 1.98 2.12 2.26
1.64 1.55 1.53 1.59 1.70 2.06 2.45 2.46 2.35 2.03 1.72 1.54 1.44 1.40 1.45 1.61 1.70 1.90 2.08 1.98 1.94 2.02 1.95 1.91 1.78 1.66 1.56 1.57 1.64 1.67 1.86 1.90 1.88 1.70 1.59 1.50 1.52 1.54 1.65 1.77 1.85 1.94 2.08
1.71 1.60 1.53 1.54 1.60 1.89 2.62 2.77 2.38 1.88 1.66 1.53 1.47 1.40 1.40 1.57 1.61 1.75 1.98 2.09 2.17 2.31 2.38 2.33 2.17 1.97 1.68 1.57 1.60 1.74 1.84 2.05 2.15 1.79 1.70 1.66 1.57 1.67 1.61 1.62 1.86 1.91 2.02
1.81 1.78 1.62 1.49 1.46 1.66 2.38 2.57 2.28 1.79 1.59 1.50 1.43 1.42 1.42 1.47 1.56 1.52 1.67 1.76 1.81 1.98 2.23 2.36 2.40 1.95 1.67 1.57 1.80 2.01 1.97 2.05 2.00 1.88 2.02 2.01 1.69 1.72 1.65 1.76 2.01 1.93 1.98
1.70 1.74 1.68 1.57 1.45 1.52 2.12 2.33 2.17 1.79 1.63 1.52 1.42 1.40 1.40 1.42 1.51 1.74 1.70 1.64 1.54 1.57 1.78 1.98 2.26 2.09 1.88 1.90 2.25 2.58 2.66 2.52 2.09 1.86 2.04 2.28 1.80 1.70 1.75 1.85 2.07 2.00 1.94
1.58 1.59 1.56 1.53 1.49 1.48 1.87 2.17 2.01 1.68 1.63 1.53 1.40 1.38 1.41 1.39 1.68 1.98 1.86 1.70 1.50 1.39 1.51 1.85 2.17 2.32 2.38 2.53 2.78 3.10 3.26 3.07 2.58 1.99 1.92 2.23 2.01 1.82 1.98 2.19 2.27 2.21 1.97
1.50 1.51 1.51 1.47 1.39 1.35 1.65 1.96 1.97 1.63 1.55 1.47 1.39 1.36 1.52 1.62 1.84 1.98 1.79 1.75 1.84 1.57 1.40 1.47 1.58 1.70 1.77 1.93 2.36 2.66 2.99 3.11 2.72 2.46 2.02 2.17 2.30 2.34 2.65 2.46 2.29 2.12 1.91